Year,Month,Day,Hour,Minute,Value (Times are PST for windspeed in km/hr)
2022,10,06,17,05,32.80
2022,10,06,17,06,27.50
2022,10,06,17,07,35.30
2022,10,06,17,08,37.50
2022,10,06,17,09,5.80
2022,10,06,17,10,16.70
2022,10,06,17,11,18.30
2022,10,06,17,12,9.70
2022,10,06,17,13,18.00
2022,10,06,17,14,21.20
2022,10,06,17,15,19.60
2022,10,06,17,16,15.40
2022,10,06,17,17,22.30
2022,10,06,17,18,33.70
2022,10,06,17,19,28.90
2022,10,06,17,20,29.10
2022,10,06,17,21,36.90
2022,10,06,17,22,31.10
2022,10,06,17,23,32.90
2022,10,06,17,24,25.30
2022,10,06,17,25,25.50
2022,10,06,17,26,31.60
2022,10,06,17,27,39.00
2022,10,06,17,28,40.80
2022,10,06,17,29,26.50
2022,10,06,17,30,17.00
2022,10,06,17,31,19.80
2022,10,06,17,32,25.70
2022,10,06,17,33,28.60
2022,10,06,17,34,22.60
2022,10,06,17,35,22.70
2022,10,06,17,36,23.10
2022,10,06,17,37,23.60
2022,10,06,17,38,39.40
2022,10,06,17,39,36.80
2022,10,06,17,40,34.80
2022,10,06,17,41,43.70
2022,10,06,17,42,38.10
2022,10,06,17,43,44.30
2022,10,06,17,44,41.70
2022,10,06,17,45,45.90
2022,10,06,17,46,39.80
2022,10,06,17,47,34.80
2022,10,06,17,48,33.00
2022,10,06,17,49,39.80
2022,10,06,17,50,35.60
2022,10,06,17,51,34.60
2022,10,06,17,52,27.20
2022,10,06,17,53,27.40
2022,10,06,17,54,25.50
2022,10,06,17,55,34.10
2022,10,06,17,56,30.70
2022,10,06,17,57,37.00
2022,10,06,17,58,37.00
2022,10,06,17,59,37.00
2022,10,06,18,00,37.00
2022,10,06,18,01,37.00
2022,10,06,18,02,37.00
2022,10,06,18,03,37.00
2022,10,06,18,04,37.00
2022,10,06,18,05,37.00
2022,10,06,18,06,37.00
2022,10,06,18,07,37.00
